sat.trackr.live / text

‹ back to catalog

LEMUR-2 CALLUM-K-J

NORAD 67366 · 2026-004D

PAYLOAD ACTIVE UNKNOWN

§ Identity

Operator
Country
US
Launch date
2026-01-11
Launch site
AFWTR
Launch vehicle
Mass (kg)
RCS (m²)

External: N2YO · Heavens-Above · Gunter

§ Orbital elements

Epoch: 2026-09-20T23:39:38.236608Z

Period
96.72 min
Inclination
97.8081°
Eccentricity
0.0008686
Mean motion
14.88905170 rev/d
Perigee alt
595.3 km
Apogee alt
607.4 km
Semi-major
6,979.5 km
B*
2.3535e-4
RAAN
261.1434°
Arg perigee
169.2869°
Mean anomaly
190.8535°
Rev number
3,754

§ Raw data

LEMUR-2 CALLUM-K-J1 67366U 26004D   26263.98585922  .00002155  00000+0  23535-3 0  99902 67366  97.8081 261.1434 0008686 169.2869 190.8535 14.88905170 37546

JSON: /api/v1/satellites/67366 · /tle

For live sub-satellite position, see the globe view (requires WebGL).

§ Visibility from observer

Set your observer location to see the next 7 days of passes ≥ 10°. The values pass through the URL so the page stays shareable.

No JS? Fill the form by hand. The geolocation button needs JavaScript.